STARLINK-34574

Last updated on Sat Jul 19 2025 00:02:08 GMT+0000 (Coordinated Universal Time)

1 64714U 25142U 25199.58335648 -.01242704 00000+0 -21500-1 0 9994 2 64714 70.0001 194.6292 0004045 279.2243 186.3419 15.53410296 4166
UTC large
Height (km)
Speed (km/s)
/
Latitude / Longitude
Inclination (degrees)
Orbital Period (minutes)
Azimuth
Elevation
Range (km)
Doppler Factor

Next 0 passes for location: London (51.5072 / 0.1276)

Sorry there are no passes over London.